Dauntless Aviation
Airports Europe Germany
EDSW

Altdorf-Wallburg

Altdorf-Wallburg, GERMANY

Airport Info
Suggest Updated Information for this Airport

Location

Latitude / Longitude: 48°16'11"N / 7°50'31"E
  48°16.188'N / 7°50.532'E
  48.2698 / 7.8422
Satellite photo at:
Airport distance calculator
From:
Weather Reports

METAR

LFST
18.2nm NW
LFST 282200Z AUTO 22003KT 180V260 CAVOK 14/10 Q1028 NOSIG

TAF

EDTL
5.8nm NW
TAF EDTL 281400Z 2815/2824 21006KT CAVOK
LFST
18.2nm NW
TAF LFST 281700Z 2818/2918 20005KT CAVOK PROB30 TEMPO 2900/2907 4000 BR
EDSB
32.3nm N
TAF EDSB 281700Z 2818/2918 22003KT CAVOK BECMG 2908/2911 22010KT
Safelog

 

Dauntless Aviation

© 2007-2016 Dauntless Aviation, all rights reserved
Information provided via PilotNav comes from a variety of official and unofficial data sources. As errors are possible, do not use PilotNav for primary flight planning purposes. Verify any information that you receive via PilotNav with current and canonical charts and other official documents. The material in this database is subject to database copyrights held by Dauntless Aviation and may not be copied without the express permission of Dauntless Aviation - licenses for use of part of all of this data are available for purchase; enquire via the Dauntless Aviation helpdesk. A number of mechanisms and markers exist in the database to protect against and identify infringement / copyright. Automated queries against this website are stictly prohibited, and all activity is logged and analyzed.